Location: Antichan
(42.9728°N, 0.6667°E)
Time: 12:57:48
(UTC+00:00)

NOSS 0 Rocket - Pass Details

Date: 15 August 2020
Orbit: 933 x 956 km, 70.0° (Epoch: 24 September)

Event Time Altitude Azimuth Distance (km) Brightness Sun altitude
Rises 22:43:17 0° 336° (NNW) 3,638 8.2 -30.6°
Reaches altitude 10° 22:45:54 10° 341° (NNW) 2,691 7.2 -30.8°
Enters shadow 22:51:50 54° 52° (NE) 1,147 4.3 -31.1°
